Tracking 29091 objects as of 17-Jul-2024
HD Live streaming from Space Station
objects crossing your sky now

ONEWEB-0561

Track ONEWEB-0561 now!
10-day predictions
ONEWEB-0561 is classified as:


NORAD ID: 56710
Int'l Code: 2023-068A
Perigee: 1,187.0 km
Apogee: 1,190.8 km
Inclination: 87.9 °
Period: 109.0 minutes
Semi major axis: 7559 km
RCS: Unknown
Launch date: May 20, 2023
Source: United Kingdom (UK)
Launch site: AIR FORCE WESTERN TEST RANGE (AFWTR)
Your satellite tracking list
Your tracking list is empty




NASA's NSSDC Master Catalog

Two Line Element Set (TLE):
1 56710U 23068A   24199.12926975 -.00000020  00000-0 -81348-4 0  9996
2 56710  87.9201  53.7510 0002502  80.1533 279.9883 13.20771558 57791
Source of the keplerian elements: AFSPC